map of VCP home
Great Circle Mapper logo
VCP - Airport
Location
City:  Campinas, São Paulo, Brazil
Near (Alt.):São Paulo
Name:Viracopos
Old (Alt.):Campinas International Airport
ICAO / IATA:SBKP / VCP

Details
Type:Airport (Aerodrome, Airfield)
Use:Public/Civil, International (customs port of entry)
Latitude:23°00'27"S (-23.007382)
Longitude:47°08'04"W (-47.134521)
Datum:WGS 1984
Elevation:2170 ft (661 m)
Runways:1
Longest:10630 × 148 ft (3240 × 45 m), paved

Time
Time Zone:UTC-3 (DST-2)
Local Time:

Weather
METAR:SBKP 190300Z 13014KT 7000 NSC 20/16 Q1014 WS R15
TAF:SBKP 190100Z 1906/2006 14010KT 8000 NSC TN18/1909Z TX32/1917Z
BECMG 1909/1911 11008KT
BECMG 1912/1914 02010KT
BECMG 1915/1917 35008KT SCT040 PROB30
TEMPO 1920/1924 TSRA SCT035 FEW040CB
BECMG 2000/2002 05007KT CAVOK
RMK PGQ

Related Locations
Nearby:
Farthest:MMD: 12213 mi / 19655 km
Minami Daito Jima, Okinawa, JP

Find:

   beyond  
but within

Other Information
Maps:
NOTAMs:
Links:
Sources:

  
flag of Brazil
flag of São Paulo
  

Sectional Chart

Flight Planning
at skyvector.com

Satellite Image

Google Maps Satellite View

 

Copyright © 2004-2014 Karl L. Swartz. All rights reserved.
The Great Circle Mapper name and logo are trademarks of the Great Circle Mapper.
All other trademarks mentioned herein belong to their respective owners.
Please see credits for attibutions and further copyright information.

  Follow gcmap on Facebook Follow gcmap on Twitter

hCard Microformat

Geo Microformat